Flag for Canada Weather past 2 weeks in Selkirk, Manitoba, Canada

Now
6 °F

Frigid.


Feels Like: -8 °F
Forecast: -4 / 21 °F
Wind: 9 mph from Northwest

Location: Winnipeg The Forks

Current Time: Mar 3, 2015 at 9:19:14 AM

Latest Report: Mar 3, 2015 at 9:00 AM


Visibility: N/A

Pressure: 29.88 "Hg

Humidity: 67%

Dew point: -3 °F

Location of SelkirkLocation

Historic Weather in Selkirk — Graph

°F

Selkirk temperature yesterday

Maximum temperature yesterday: 26 °F (at 2:00 PM)
Minimum temperature yesterday: 0 °F (at 7:00 AM)
Average temperature yesterday: 15 °F

Past Weeks' High & Low Weather Summary

 TemperatureHumidityPressure
High27 °F (Feb 23, 10:00 PM)91% (Feb 24, 12:00 AM)30.83 "Hg (Feb 24, 12:00 AM)
Low-21 °F (Feb 22, 8:00 AM)46% (Feb 22, 5:00 PM)29.67 "Hg (Feb 23, 11:00 PM)
Average2 °F67%30.24 "Hg
* Reported Feb 16 8:00 AM — Mar 3 8:00 AM, Selkirk, Weather by CustomWeather, © 2015

Note: Actual official high and low records may vary slightly from our data, if they occured in-between our weather recording intervals... More about our weather records

Advertising

Selkirk weather history for previous 24 hours

 ConditionsComfort  
Time TempWeatherWind HumidityBarometerVisibility
8:00 AM
Tue, Mar 3
7 °FFrigid.8 mph71%29.86 "HgN/A
7:00 AM8 °FFrigid.6 mph71%29.85 "HgN/A
6:00 AM10 °FFrigid.8 mph72%29.82 "HgN/A
5:00 AM11 °FCold.8 mph74%29.80 "HgN/A
4:00 AM14 °FCold.8 mph75%29.79 "HgN/A
3:00 AM18 °FCold.7 mph79%29.75 "HgN/A
2:00 AM22 °FCold.6 mph80%29.73 "HgN/A
1:00 AM21 °FCold.6 mph79%29.71 "HgN/A
12:00 AM24 °FCold.8 mph76%29.71 "HgN/A
11:00 PM
Mon, Mar 2
23 °FCold.8 mph76%29.72 "HgN/A
10:00 PM24 °FCold.9 mph79%29.75 "HgN/A
9:00 PM24 °FCold.9 mph70%29.77 "HgN/A
8:00 PM25 °FChilly.6 mph68%29.82 "HgN/A
7:00 PM24 °FCold.5 mph67%29.85 "HgN/A
6:00 PM25 °FCold.5 mph64%29.90 "HgN/A
5:00 PM25 °FCold.3 mph63%29.93 "HgN/A
4:00 PM25 °FCold.3 mph59%29.98 "HgN/A
3:00 PM25 °FChilly.5 mph54%30.02 "HgN/A
2:00 PM26 °FChilly.5 mph50%30.07 "HgN/A
1:00 PM21 °FCold.5 mph57%30.13 "HgN/A
12:00 PM18 °FCold.7 mph62%30.18 "HgN/A
11:00 AM14 °FCold.2 mph70%30.22 "HgN/A
10:00 AM9 °FFrigid.2 mph78%30.25 "HgN/A
9:00 AM5 °FFrigid.2 mph83%30.27 "HgN/A
Weather by CustomWeather, © 2015

See weather overviewHow to use our weather pages